Location: *
(52.2090°N, 4.1550°W)
Time: 22:01:05
(UTC+00:00)

Cosmos 1500 Rocket - Pass Details

Date: 22 October 2019
Orbit: 603 x 631 km, 82.5° (Epoch: 17 November)

Event Time Altitude Azimuth Distance (km) Brightness Sun altitude
Rises 19:05:08 0° 358° (N) 2,939 7.1 -18.6°
Reaches altitude 10° 19:07:52 10° 14° (NNE) 2,025 6.1 -19.0°
Enters shadow 19:09:29 17° 33° (NNE) 1,610 5.4 -19.2°
